Find Starlink 32279

NORAD ID: 61003 Int'l Des: 2024-158 Owner: SPXS Country: US Constellation: starlink operational
LEOCIRCULAR

当前视图

正在加载3D地球...

About Starlink 32279

Starlink 32279 (NORAD 61003) is a starlink constellation satellite (v2 mini) launched Sep 5, 2024 by SPXS of US. It operates in LEO, CIRCULAR orbit with a mass of 730.00 kg.

关于 Starlink 32279

正在加载描述...

即将过境

Passes for default location (London). Set your location on the main map for personalized predictions.

高度历史

Loading altitude history...

两行轨道根数

1 61003U 24158P 26170.74627046 .00001173 00000-0 45847-4 0 9996
2 61003 53.1634 310.9931 0001357 95.9483 264.1675 15.34404543101280
Epoch: Jun 19, 2026 • Age: 42 hours

当前状态

高度 469.0 km
速度 7.63 km/s
星下点 -20.62°S, 163.26°W
发射日期 Sep 5, 2024
运行时间 1.7 years
类型 internet

技术详情

分类 Payload
质量 730.00 kg
干质量 700.00 kg
总质量 730.00 kg
长度 0.30 m
直径 4.10 m
跨度 29.00 m
形状 Box + pan
制造商 SPXS
平台类型 Starlink V2M
阶段状态 In Orbit
所有者/国家 SPXS/US

Most Searched